• In Uzbekistan
  • List of Countries
  • For 7 days
  • Water Temperature
  • Satellite Maps
  • Weather Map
  • Weather Widgets
  • user-avatar
    Login

    Hourly Weather Batina

    Today, 27 April, Thursday

    Time Temperature Precipitation Wind Pressure Humidity
    00:00 +17°C° 0.1 mm 3 mps 667 mmHg 53%
    01:00 +17°C° 0 mm 3 mps 667 mmHg 53%
    02:00 +16°C° 0 mm 3 mps 667 mmHg 54%
    03:00 +16°C° 0 mm 3 mps 667 mmHg 54%
    04:00 +15°C° 0 mm 4 mps 667 mmHg 53%
    05:00 +15°C° 0 mm 4 mps 667 mmHg 53%
    06:00 +17°C° 0 mm 4 mps 667 mmHg 52%
    07:00 +19°C° 0 mm 6 mps 667 mmHg 43%
    08:00 +22°C° 0 mm 7 mps 668 mmHg 35%
    09:00 +24°C° 0 mm 9 mps 669 mmHg 27%
    10:00 +26°C° 0 mm 9 mps 669 mmHg 26%
    11:00 +26°C° 0 mm 9 mps 669 mmHg 24%
    12:00 +27°C° 0 mm 9 mps 669 mmHg 22%
    13:00 +27°C° 0 mm 9 mps 669 mmHg 22%
    14:00 +27°C° 0 mm 8 mps 668 mmHg 22%
    15:00 +27°C° 0 mm 8 mps 668 mmHg 22%
    16:00 +26°C° 0 mm 7 mps 667 mmHg 25%
    17:00 +24°C° 0 mm 6 mps 667 mmHg 28%
    18:00 +22°C° 0 mm 5 mps 667 mmHg 30%
    19:00 +21°C° 0.1 mm 5 mps 667 mmHg 36%
    20:00 +20°C° 0.1 mm 5 mps 667 mmHg 42%
    21:00 +17°C° 0.1 mm 5 mps 667 mmHg 47%
    22:00 +17°C° 0 mm 4 mps 667 mmHg 55%
    23:00 +14°C° 0 mm 4 mps 667 mmHg 62%

    Tomorrow, 28 April, Friday

    Time Temperature Precipitation Wind Pressure Humidity
    00:00 +13°C° 0 mm 3 mps 667 mmHg 69%
    01:00 +12°C° 0 mm 3 mps 666 mmHg 72%
    02:00 +12°C° 0 mm 3 mps 666 mmHg 76%
    03:00 +11°C° 0 mm 3 mps 666 mmHg 80%
    04:00 +11°C° 0 mm 3 mps 666 mmHg 77%
    05:00 +12°C° 0 mm 3 mps 667 mmHg 75%
    06:00 +12°C° 0 mm 3 mps 667 mmHg 73%
    07:00 +14°C° 0 mm 3 mps 667 mmHg 65%
    08:00 +17°C° 0 mm 3 mps 668 mmHg 58%
    09:00 +19°C° 0 mm 4 mps 669 mmHg 50%
    10:00 +20°C° 0 mm 3 mps 669 mmHg 46%
    11:00 +22°C° 0 mm 3 mps 669 mmHg 41%
    12:00 +24°C° 0 mm 3 mps 670 mmHg 36%
    13:00 +24°C° 0 mm 3 mps 669 mmHg 36%
    14:00 +25°C° 0 mm 3 mps 669 mmHg 35%
    15:00 +25°C° 0 mm 3 mps 669 mmHg 35%
    16:00 +21°C° 0.2 mm 4 mps 668 mmHg 46%
    17:00 +19°C° 0.2 mm 4 mps 668 mmHg 57%
    18:00 +17°C° 0.2 mm 4 mps 667 mmHg 67%
    19:00 +14°C° 0.2 mm 4 mps 667 mmHg 72%
    20:00 +13°C° 0.2 mm 4 mps 668 mmHg 76%
    21:00 +12°C° 0.2 mm 4 mps 668 mmHg 81%
    22:00 +12°C° 0.8 mm 4 mps 668 mmHg 82%
    23:00 +12°C° 0.8 mm 4 mps 668 mmHg 83%

    Day after tomorrow, 29 April, Saturday

    Time Temperature Precipitation Wind Pressure Humidity
    00:00 +11°C° 0.8 mm 3 mps 668 mmHg 84%
    01:00 +12°C° 0.5 mm 3 mps 667 mmHg 84%
    02:00 +13°C° 0.5 mm 2 mps 667 mmHg 84%
    03:00 +13°C° 0.5 mm 1 mps 667 mmHg 83%
    04:00 +13°C° 0.2 mm 1 mps 667 mmHg 82%
    05:00 +13°C° 0.2 mm 1 mps 667 mmHg 80%
    06:00 +13°C° 0.2 mm 1 mps 667 mmHg 79%
    07:00 +15°C° 0.1 mm 1 mps 668 mmHg 74%
    08:00 +16°C° 0.1 mm 2 mps 668 mmHg 70%
    09:00 +17°C° 0.1 mm 2 mps 669 mmHg 65%
    10:00 +18°C° 0.7 mm 2 mps 669 mmHg 63%
    11:00 +18°C° 0.7 mm 2 mps 668 mmHg 61%
    12:00 +19°C° 0.7 mm 2 mps 668 mmHg 59%
    13:00 +19°C° 1.1 mm 2 mps 668 mmHg 58%
    14:00 +19°C° 1.1 mm 2 mps 668 mmHg 57%
    15:00 +19°C° 1.1 mm 2 mps 668 mmHg 57%
    16:00 +18°C° 0.8 mm 2 mps 668 mmHg 61%
    17:00 +18°C° 0.8 mm 2 mps 668 mmHg 66%
    18:00 +17°C° 0.8 mm 2 mps 667 mmHg 71%
    19:00 +16°C° 0.3 mm 2 mps 668 mmHg 75%
    20:00 +15°C° 0.3 mm 1 mps 668 mmHg 79%
    21:00 +14°C° 0.3 mm 1 mps 668 mmHg 82%
    22:00 +13°C° 0.1 mm 1 mps 668 mmHg 82%
    23:00 +13°C° 0.1 mm 1 mps 667 mmHg 82%

    30 April, Sunday

    Time Temperature Precipitation Wind Pressure Humidity
    00:00 +13°C° 0.1 mm 1 mps 667 mmHg 82%
    01:00 +12°C° 0 mm 1 mps 667 mmHg 81%
    02:00 +12°C° 0 mm 1 mps 667 mmHg 80%
    03:00 +12°C° 0 mm 1 mps 667 mmHg 79%
    04:00 +13°C° 0 mm 1 mps 667 mmHg 77%
    05:00 +14°C° 0 mm 1 mps 668 mmHg 75%
    06:00 +14°C° 0 mm 1 mps 668 mmHg 73%
    07:00 +16°C° 0 mm 1 mps 669 mmHg 66%
    08:00 +17°C° 0 mm 2 mps 669 mmHg 59%
    09:00 +19°C° 0 mm 2 mps 670 mmHg 52%
    10:00 +20°C° 0.1 mm 2 mps 670 mmHg 49%
    11:00 +21°C° 0.1 mm 2 mps 669 mmHg 45%
    12:00 +21°C° 0.1 mm 2 mps 669 mmHg 42%
    13:00 +23°C° 0.1 mm 2 mps 669 mmHg 40%
    14:00 +24°C° 0.1 mm 3 mps 669 mmHg 37%
    15:00 +24°C° 0.1 mm 3 mps 669 mmHg 34%
    16:00 +23°C° 0.4 mm 2 mps 668 mmHg 41%
    17:00 +20°C° 0.4 mm 2 mps 668 mmHg 49%
    18:00 +18°C° 0.4 mm 2 mps 668 mmHg 57%
    19:00 +17°C° 0.2 mm 2 mps 668 mmHg 62%
    20:00 +16°C° 0.2 mm 1 mps 668 mmHg 67%
    21:00 +15°C° 0.2 mm 1 mps 668 mmHg 72%
    22:00 +14°C° 0 mm 1 mps 668 mmHg 75%
    23:00 +14°C° 0 mm 1 mps 667 mmHg 77%

    1 May, Monday

    Time Temperature Precipitation Wind Pressure Humidity
    00:00 +13°C° 0 mm 1 mps 667 mmHg 80%
    01:00 +13°C° 0.1 mm 1 mps 667 mmHg 80%
    02:00 +13°C° 0.1 mm 1 mps 667 mmHg 80%
    03:00 +13°C° 0.1 mm 1 mps 667 mmHg 81%
    04:00 +13°C° 0 mm 1 mps 668 mmHg 79%
    05:00 +14°C° 0 mm 1 mps 668 mmHg 78%
    06:00 +14°C° 0 mm 1 mps 669 mmHg 76%
    07:00 +16°C° 0.1 mm 1 mps 670 mmHg 71%
    08:00 +17°C° 0.1 mm 2 mps 670 mmHg 65%
    09:00 +18°C° 0.1 mm 2 mps 671 mmHg 60%
    10:00 +19°C° 0.5 mm 2 mps 671 mmHg 55%
    11:00 +20°C° 0.5 mm 3 mps 671 mmHg 51%
    12:00 +21°C° 0.5 mm 3 mps 671 mmHg 47%
    13:00 +21°C° 0.5 mm 3 mps 671 mmHg 48%
    14:00 +20°C° 0.5 mm 4 mps 671 mmHg 50%
    15:00 +20°C° 0.5 mm 4 mps 671 mmHg 52%
    16:00 +18°C° 0.2 mm 4 mps 671 mmHg 59%
    17:00 +15°C° 0.2 mm 4 mps 671 mmHg 66%
    18:00 +14°C° 0.2 mm 4 mps 671 mmHg 73%
    19:00 +13°C° 0 mm 4 mps 671 mmHg 76%
    20:00 +12°C° 0 mm 4 mps 671 mmHg 78%
    21:00 +11°C° 0 mm 4 mps 671 mmHg 80%
    22:00 +10°C° 0 mm 4 mps 671 mmHg 81%
    23:00 +10°C° 0 mm 3 mps 671 mmHg 82%

    2 May, Tuesday

    Time Temperature Precipitation Wind Pressure Humidity
    00:00 +9°C° 0 mm 3 mps 671 mmHg 82%
    01:00 +9°C° 0.1 mm 3 mps 671 mmHg 82%
    02:00 +9°C° 0.1 mm 3 mps 671 mmHg 82%
    03:00 +9°C° 0.1 mm 3 mps 671 mmHg 82%
    04:00 +9°C° 0.1 mm 3 mps 671 mmHg 82%
    05:00 +9°C° 0.1 mm 3 mps 671 mmHg 82%
    06:00 +8°C° 0.1 mm 3 mps 672 mmHg 81%
    07:00 +9°C° 0.1 mm 3 mps 672 mmHg 79%
    08:00 +9°C° 0.1 mm 3 mps 672 mmHg 76%
    09:00 +9°C° 0.1 mm 3 mps 672 mmHg 74%
    10:00 +10°C° 0 mm 3 mps 672 mmHg 68%
    11:00 +12°C° 0 mm 2 mps 672 mmHg 63%
    12:00 +13°C° 0 mm 2 mps 672 mmHg 58%
    13:00 +14°C° 0 mm 2 mps 672 mmHg 56%
    14:00 +14°C° 0 mm 2 mps 672 mmHg 55%
    15:00 +15°C° 0 mm 1 mps 672 mmHg 53%
    16:00 +15°C° 0 mm 1 mps 672 mmHg 56%
    17:00 +14°C° 0 mm 2 mps 672 mmHg 58%
    18:00 +13°C° 0 mm 2 mps 672 mmHg 61%
    19:00 +13°C° 0 mm 2 mps 672 mmHg 66%
    20:00 +12°C° 0 mm 2 mps 672 mmHg 71%
    21:00 +10°C° 0 mm 2 mps 672 mmHg 75%
    22:00 +9°C° 0 mm 2 mps 671 mmHg 78%
    23:00 +9°C° 0 mm 1 mps 671 mmHg 81%
    Show more